Date String (YYYY-MM-DD hh:mm:ss) UTC,Instrument flags,Ambient pressure (hPa),Sample flow (lpm),Bypass flow (lpm),Sample temperature (°C),Ambient temperature (°C),ASC tube jacket temperature (°C),LED temperature (°C),Box temperature (°C),Sample RH (%),Span deviation,Mass concentration (μg/m³),Mass concentration (μg/m³),Mass concentration (μg/m³)
DateTimeUTC,F1_M11,P_M11,Q1_M11,Q2_M11,T1_M11,T2_M11,T3_M11,T4_M11,T5_M11,U1_M11,ZSPAN_M11,X0_M11,X2_M11,X1_M11
2022-05-02 01:00:00,,0819.5,5.02,0.00,30.1,29.1,00.0,39.1,31.7,12.8,0000.0,0018.89,0005.99,0004.12
2022-05-02 01:01:00,,0819.6,4.98,0.00,30.1,29.1,00.0,39.1,31.7,12.8,0000.0,0019.53,0006.10,0004.16
2022-05-02 01:02:00,,0819.6,5.00,0.00,30.0,29.0,00.0,39.1,31.6,12.8,0000.0,0019.38,0006.17,0004.16
2022-05-02 01:03:00,,0819.7,5.00,0.00,30.0,29.0,00.0,39.1,31.6,12.9,0000.0,0019.16,0006.22,0004.19
2022-05-02 01:04:00,,0819.6,5.00,0.00,30.0,29.0,00.0,39.1,31.7,13.0,0000.0,0018.62,0006.27,0004.20
2022-05-02 01:05:00,,0819.7,5.01,0.00,30.0,28.9,00.0,39.1,31.7,13.0,0000.0,0017.90,0006.26,0004.21
2022-05-02 01:06:00,,0819.7,4.98,0.00,30.0,28.9,00.0,39.0,31.6,13.0,0000.0,0018.00,0006.29,0004.23
2022-05-02 01:07:00,,0819.7,5.00,0.00,30.0,28.9,00.0,39.0,31.7,13.0,0000.0,0017.79,0006.28,0004.24
2022-05-02 01:08:00,,0819.7,5.01,0.00,30.0,28.9,00.0,39.0,31.6,13.0,0000.0,0017.18,0006.29,0004.26
2022-05-02 01:09:00,,0819.7,4.98,0.00,30.0,28.9,00.0,39.0,31.7,13.1,0000.0,0017.30,0006.23,0004.26
2022-05-02 01:10:00,,0819.6,5.02,0.00,30.0,28.9,00.0,39.0,31.7,13.1,0000.0,0017.92,0006.25,0004.27
2022-05-02 01:11:00,,0819.7,4.98,0.00,30.0,28.8,00.0,39.0,31.6,13.1,0000.0,0017.81,0006.21,0004.28
2022-05-02 01:12:00,,0819.7,5.01,0.00,30.0,28.8,00.0,39.0,31.6,13.0,0000.0,0016.82,0006.14,0004.27
2022-05-02 01:13:00,,0819.7,4.99,0.00,30.0,28.8,00.0,39.0,31.6,13.0,0000.0,0016.27,0006.14,0004.28
2022-05-02 01:14:00,,0819.7,5.00,0.00,30.0,28.8,00.0,39.0,31.6,13.0,0000.0,0015.98,0006.16,0004.29
2022-05-02 01:15:00,,0819.7,5.02,0.00,30.0,28.8,00.0,39.0,31.6,13.0,0000.0,0016.00,0006.13,0004.31
2022-05-02 01:16:00,,0819.7,4.98,0.00,30.0,28.8,00.0,39.0,31.6,13.0,0000.0,0016.43,0006.16,0004.32
2022-05-02 01:17:00,,0819.7,5.01,0.00,30.0,28.8,00.0,39.0,31.6,12.9,0000.0,0016.36,0006.15,0004.33
2022-05-02 01:18:00,,0819.7,4.99,0.00,30.0,28.8,00.0,39.0,31.5,12.8,0000.0,0017.88,0006.15,0004.35
2022-05-02 01:19:00,,0819.7,4.99,0.00,30.0,28.7,00.0,39.0,31.5,13.0,0000.0,0017.84,0006.15,0004.36
2022-05-02 01:20:00,,0819.7,5.02,0.00,30.0,28.7,00.0,39.0,31.6,13.0,0000.0,0018.11,0006.24,0004.36
2022-05-02 01:21:00,,0819.8,4.99,0.00,30.0,28.7,00.0,39.0,31.6,13.0,0000.0,0017.98,0006.24,0004.36
2022-05-02 01:22:00,,0819.8,5.02,0.00,30.0,28.8,00.0,39.0,31.6,13.0,0000.0,0018.11,0006.26,0004.37
2022-05-02 01:23:00,,0819.8,4.98,0.00,30.0,28.8,00.0,39.0,31.6,13.0,0000.0,0018.11,0006.23,0004.39
2022-05-02 01:24:00,,0819.8,5.01,0.00,30.0,28.8,00.0,39.0,31.6,13.0,0000.0,0018.15,0006.23,0004.41
2022-05-02 01:25:00,,0819.8,4.98,0.00,30.0,28.8,00.0,39.0,31.6,12.9,0000.0,0018.09,0006.20,0004.42
2022-05-02 01:26:00,,0819.8,5.01,0.00,30.0,28.9,00.0,39.0,31.6,12.9,0000.0,0018.02,0006.25,0004.43
2022-05-02 01:27:00,,0819.8,5.00,0.00,30.0,28.9,00.0,39.0,31.6,13.1,0000.0,0018.35,0006.27,0004.43
2022-05-02 01:28:00,,0819.8,4.99,0.00,30.0,28.8,00.0,39.0,31.6,13.0,0000.0,0018.34,0006.25,0004.44
2022-05-02 01:29:00,,0819.9,5.01,0.00,29.9,28.8,00.0,39.0,31.6,12.7,0000.0,0017.68,0006.27,0004.44
2022-05-02 01:30:00,,0819.9,4.98,0.00,29.9,28.9,00.0,39.0,31.6,12.5,0000.0,0017.84,0006.35,0004.45
2022-05-02 01:31:00,,0819.9,5.02,0.00,29.9,28.9,00.0,39.0,31.6,12.5,0000.0,0019.57,0006.58,0004.47
2022-05-02 01:32:00,,0819.9,4.99,0.00,29.9,28.9,00.0,39.0,31.7,12.5,0000.0,0019.56,0006.61,0004.49
2022-05-02 01:33:00,,0819.9,5.03,0.00,29.9,28.9,00.0,39.0,31.7,12.4,0000.0,0020.37,0006.71,0004.50
2022-05-02 01:34:00,,0819.9,4.99,0.00,29.9,29.0,00.0,39.0,31.7,12.5,0000.0,0020.66,0006.71,0004.49
2022-05-02 01:35:00,,0819.9,5.01,0.00,29.9,29.0,00.0,39.0,31.7,12.5,0000.0,0020.87,0006.70,0004.48
2022-05-02 01:36:00,,0819.9,4.99,0.00,29.9,29.0,00.0,39.0,31.7,12.5,0000.0,0023.08,0006.84,0004.49
2022-05-02 01:37:00,,0819.9,5.01,0.00,29.9,29.0,00.0,39.0,31.7,12.5,0000.0,0024.51,0007.01,0004.50
2022-05-02 01:38:00,,0819.9,4.99,0.00,29.9,29.0,00.0,39.0,31.6,12.5,0000.0,0024.68,0007.14,0004.51
2022-05-02 01:39:00,,0819.9,5.01,0.00,29.9,29.0,00.0,38.9,31.6,12.6,0000.0,0026.49,0007.36,0004.52
2022-05-02 01:40:00,,0820.0,4.99,0.00,29.9,29.0,00.0,38.9,31.7,12.6,0000.0,0027.87,0007.55,0004.53
2022-05-02 01:41:00,,0820.0,5.00,0.00,29.9,29.0,00.0,38.9,31.7,12.6,0000.0,0028.46,0007.73,0004.55
2022-05-02 01:42:00,,0820.1,5.00,0.00,29.9,29.0,00.0,38.9,31.7,12.7,0000.0,0026.86,0007.61,0004.54
2022-05-02 01:43:00,,0820.2,5.00,0.00,29.9,29.1,00.0,38.9,31.7,12.6,0000.0,0026.45,0007.58,0004.55
2022-05-02 01:44:00,,0820.2,4.99,0.00,29.9,29.0,00.0,38.9,31.7,12.7,0000.0,0025.81,0007.56,0004.55
2022-05-02 01:45:00,,0820.2,5.01,0.00,29.9,29.0,00.0,38.9,31.7,12.6,0000.0,0024.70,0007.53,0004.54
2022-05-02 01:46:00,,0820.2,4.99,0.00,29.9,29.0,00.0,38.9,31.7,12.5,0000.0,0024.44,0007.54,0004.55
2022-05-02 01:47:00,,0820.1,5.01,0.00,29.9,29.0,00.0,38.9,31.7,12.6,0000.0,0022.61,0007.46,0004.56
2022-05-02 01:48:00,,0820.1,4.99,0.00,29.9,29.0,00.0,38.9,31.6,12.6,0000.0,0021.09,0007.32,0004.57
2022-05-02 01:49:00,,0820.2,4.99,0.00,29.9,29.0,00.0,38.9,31.6,12.5,0000.0,0020.82,0007.23,0004.58
2022-05-02 01:50:00,,0820.2,5.01,0.00,29.9,29.0,00.0,38.9,31.6,12.8,0000.0,0019.30,0007.23,0004.66
2022-05-02 01:51:00,,0820.3,4.99,0.00,29.8,29.0,00.0,38.9,31.5,12.5,0000.0,0017.84,0007.23,0004.75
2022-05-02 01:52:00,,0820.2,5.00,0.00,29.8,29.0,00.0,38.9,31.5,12.4,0000.0,0016.98,0007.12,0004.77
2022-05-02 01:53:00,,0820.2,5.01,0.00,29.8,29.0,00.0,38.9,31.5,12.5,0000.0,0017.07,0007.03,0004.78
2022-05-02 01:54:00,,0820.2,4.98,0.00,29.8,29.0,00.0,38.9,31.5,12.8,0000.0,0017.79,0007.08,0004.81
2022-05-02 01:55:00,,0820.0,5.02,0.00,29.8,28.9,00.0,38.9,31.5,12.8,0000.0,0018.21,0007.25,0004.95
2022-05-02 01:56:00,,0819.9,5.01,0.00,29.8,28.9,00.0,38.9,31.5,12.8,0000.0,0018.36,0007.46,0005.07
2022-05-02 01:57:00,,0819.9,5.01,0.00,29.8,28.9,00.0,38.8,31.5,12.8,0000.0,0018.98,0007.60,0005.13
2022-05-02 01:58:00,,0819.9,4.98,0.00,29.8,28.9,00.0,38.8,31.5,13.2,0000.0,0020.16,0007.75,0005.20
2022-05-02 01:59:00,,0819.9,5.01,0.00,29.8,28.9,00.0,38.8,31.5,13.2,0000.0,0020.97,0007.92,0005.28
